Weather in Podvyaz'e

Russia / Ryazan Oblast     54°35′23″N   39°32′29″E
temp.,
°C
wind,
m/s
gust,
m/s
humid.,
%
clouds,
%
prec.,
mm/h
press.,
hPa
HPBL,
m
22 may, sun
sun2200:00+6ese2264100 0.0 100511
03:00+4ne4682100 0.0 1004109
06:00+4ene51082100 0.0 1003297
09:00+9ene676928 0.0 1002859
12:00+11ne665674 0.0 10011638
15:00+12nne564881 0.0 10012032
18:00+10nne685822 0.0 1001833
21:00+5nne611665 0.0 1004424
23 may, mon
mon2300:00+1n38784 0.0 1005208
03:00−1nnw36865 0.0 1006124
06:00+1nnw48755 0.0 1006317
09:00+6nnw696088 0.0 10051596
12:00+8nw6855100 0.0 10051753
15:00+11nw695284 0.0 10041984
18:00+11nw6962100 0.0 10041207
21:00+6wnw4107097 0.0 1004171
24 may, tue
tue2400:00+4w41069100 0.0 1004179
03:00+4wnw41067100 0.0 1004203
06:00+5wnw4971100 0.0 1005342
09:00+7nw6960100 0.0 10051525
12:00+4nw469291 0.4 1008547
15:00+7nnw6765100 0.8 10081447
18:00+7nnw567198 0.2 10101031
21:00+4nnw358393 0.3 1012107
25 may, wed
wed2500:00+1nnw34925 0.0 101352
03:000nw339450 0.0 101444
06:00+2nnw35885 0.0 1015192
09:00+7nnw456479 0.0 10161316
12:00+7nnw4460100 0.0 10161356
15:00+8wnw455994 0.1 10161251
18:00+9wnw456235 0.0 10161134
21:00+6sw357695 0.0 101686
26 may, thu
thu2600:00+5wsw368388 0.0 1015114
03:00+3sw3492100 0.0 101561
06:00+6ssw2587100 0.0 1013131
09:00+11ssw347777 0.0 1010427
12:00+14ssw357480 0.0 1008600
15:00+17sw81073100 1.1 10051171
18:00+12ssw61395100 2.4 1003683
21:00+11ssw51196100 4.1 999542